#timestamp,LO_Frequency,Hit 
1500552015.2,286046995.3,N
1500552035.9,286046995.5,N
1500552055.7,286046997.9,N
1500552075.6,286046995.2,N
1500552095.4,286046995.3,N
1500552115.2,286046995.1,N
1500552135.1,286046998.0,N
1500552136.0,286046998.0,N
1500552155.8,286046997.3,N
1500552175.7,286046998.0,N
1500552195.5,286046998.0,N
1500552215.3,286046995.1,N
1500552235.2,286046994.9,N
1500552255.0,286046997.7,N
1500552255.9,286046997.7,N
1500552275.8,286046997.4,N
1500552295.6,286046997.7,N
1500552315.4,286046997.7,N
1500552335.3,286046998.0,N
1500552355.1,286046995.4,N
1500552375.8,286046995.4,N
1500552395.7,286046995.7,N
1500552415.5,286046995.4,N
1500552435.4,286046995.3,N
1500552455.2,286046997.8,N
1500552475.0,286046997.6,N
1500552475.9,286046997.6,N
1500552495.8,286046997.8,N
1500552515.6,286046997.6,N
1500552535.5,286046998.0,N
1500552555.3,286046995.8,N
1500552575.1,286046995.6,N
1500552595.9,286046995.6,N
1500552615.7,286046998.0,N
1500552635.5,286046995.7,N
1500552655.4,286046995.9,N
1500552675.2,286046994.2,N
1500552695.1,286046994.3,N
1500552696.0,286046994.3,N
1500552715.8,286046994.3,N
1500552735.6,286046994.1,N
1500552755.5,286046994.3,N
1500552775.3,286046993.8,N
1500552795.1,286046996.1,N
1500552815.9,286046993.6,N
1500552835.7,286046994.3,N
1500552855.6,286046993.6,N
1500552875.4,286046994.2,N
1500552895.2,286046994.6,N
1500552915.1,286046994.1,N
1500552916.0,286046994.1,N
1500552935.8,286046991.7,N
1500552955.7,286046993.8,N
1500552975.5,286046994.4,N
1500552995.3,286046994.2,N
1500553015.2,286046991.8,N
1500553035.0,286046994.5,N
1500553035.9,286046994.5,N
1500553055.8,286046993.0,N
1500553075.6,286046992.2,N
1500553095.4,286046992.3,N
1500553115.3,286046994.7,N
1500553135.1,286046991.8,N
1500553155.8,286046992.6,N
1500553175.7,286046990.2,N
1500553195.5,286046992.6,N
1500553215.4,286046992.3,N
1500553235.2,286046992.5,N
1500553255.0,286046992.5,N
1500553255.9,286046992.5,N
1500553275.8,286046992.9,N
1500553295.6,286046991.9,N
1500553315.4,286046993.1,N
1500553335.3,286046992.5,N
1500553355.1,286046991.8,N
1500553375.9,286046994.8,N
1500553395.7,286046992.6,N
1500553415.5,286046993.0,N
1500553435.4,286046992.8,N
1500553455.2,286046991.8,N
1500553475.1,286046992.7,N
1500553476.0,286046992.7,N
1500553495.8,286046992.0,N
1500553515.6,286046993.1,N
1500553535.5,286046990.5,N
1500553555.3,286046990.2,N
1500553575.1,286046993.2,N
1500553595.9,286046991.3,N
1500553615.7,286046990.3,N
1500553635.6,286046990.7,N
1500553655.4,286046993.1,N
1500553675.2,286046992.8,N
1500553695.1,286046993.2,N
1500553696.0,286046993.2,N
1500553715.8,286046992.3,N
1500553735.6,286046992.4,N
1500553755.5,286046992.3,N
1500553775.3,286046991.9,N
1500553795.2,286046994.4,N
1500553815.9,286046994.6,N
1500553835.7,286046994.5,N
1500553855.6,286046994.5,N
1500553875.4,286046992.2,N
1500553895.2,286046992.3,N
1500553915.1,286046991.9,N
1500553916.0,286046991.9,N
1500553935.8,286046991.9,N
1500553955.7,286046994.8,N
1500553975.5,286046992.0,N
1500553995.3,286046991.8,N
1500554015.2,286046994.3,N
1500554035.0,286046994.8,N
1500554035.9,286046994.8,N
1500554055.8,286046991.9,N
1500554075.6,286046991.8,N
1500554095.4,286046992.2,N
1500554115.3,286046994.7,N
1500554135.1,286046994.7,N
1500554155.8,286046994.0,N
1500554175.7,286046994.2,N
1500554195.5,286046993.5,N
1500554215.4,286046992.0,N
1500554235.2,286046991.8,N
1500554255.0,286046994.4,N
1500554255.9,286046994.4,N
1500554275.8,286046992.2,N
1500554295.6,286046991.9,N
1500554315.5,286046991.7,N
1500554335.3,286046994.4,N
1500554355.1,286046992.1,N
1500554375.9,286046992.1,N
1500554395.7,286046993.8,N
1500554415.5,286046993.6,N
1500554435.4,286046993.4,N
1500554455.2,286046993.3,N
1500554475.1,286046995.9,N
1500554476.0,286046995.9,N
1500554495.8,286046995.9,N
1500554515.6,286046996.0,N
1500554535.5,286046995.9,N
1500554555.3,286046996.4,N
1500554575.1,286046996.3,N
1500554595.9,286046995.2,N
1500554615.7,286046996.0,N
1500554635.6,286046996.3,N
1500554655.4,286046996.2,N
1500554675.2,286046995.3,N
1500554695.1,286046995.0,N
1500554696.0,286046995.0,N
1500554715.8,286046995.2,N
1500554735.7,286046996.3,N
1500554755.5,286046995.1,N
1500554775.3,286046996.1,N
1500554795.2,286046996.4,N
1500554815.0,286046996.3,N
1500554815.9,286046996.3,N
1500554835.7,286046993.3,N
1500554855.6,286046995.9,N
1500554875.4,286046993.4,N
1500554895.3,286046996.2,N
1500554915.1,286046994.9,N
1500554916.0,286046994.9,N
1500554935.8,286046995.4,N
1500554955.7,286046995.0,N
1500554975.5,286046995.8,N
1500554995.3,286046995.1,N
1500555015.2,286046995.1,N
1500555035.0,286046995.2,N
1500555035.9,286046995.2,N
1500555055.8,286046995.5,N
1500555075.6,286046996.1,N
1500555095.4,286046993.3,N
1500555115.3,286046995.8,N
1500555135.1,286046995.6,N
1500555155.9,286046995.3,N
1500555175.7,286046995.7,N
1500555195.5,286046995.1,N
1500555215.4,286046995.3,N
1500555235.2,286046996.1,N
1500555255.0,286046995.4,N
1500555255.9,286046995.4,N
1500555275.8,286046995.1,N
1500555295.6,286046995.2,N
1500555315.5,286046995.4,N
1500555335.3,286046996.1,N
1500555355.1,286046995.2,N
1500555375.9,286046995.0,N
1500555395.7,286046995.0,N
1500555415.5,286046997.6,N
1500555435.4,286046994.9,N
1500555455.2,286046995.3,N
1500555475.1,286046997.6,N
1500555476.0,286046997.6,N
1500555495.8,286046995.6,N
1500555515.6,286046995.7,N
1500555535.5,286046995.7,N
1500555555.3,286046995.2,N
1500555575.2,286046997.9,N
1500555595.9,286046995.4,N
